LA8QT Lodingen NO current weather conditions

sailwx.info

Wind from 259

Air temperature 4.4° C
Dewpoint 3.3° C

Last reported at 2014-Nov-28 10:40 UTC.
Time now 2014-Nov-28 11:08 UTC

Location: N 68°28' E 016°04'.
View on Google Maps.

See reports from other nearby stations

  
Tides and Currents Weather Stations Pressure Air Temp Water Temp Dewpoint Dewpoint Depression Visibility Wind Speed Wind Dir Waves Ship Positions
date/time (UTC)wind fromknots sea level pressurealtimeterstation pressurevisibilityair tempwater tempwave heightnotes
2014-Nov-28 10:40 259 4.4
2014-Nov-28 10:25 259 3.9
2014-Nov-28 10:10 259 3.9
2014-Nov-28 09:55 259 3.9
2014-Nov-28 09:40 259 3.9
2014-Nov-28 09:25 259 3.9
2014-Nov-28 09:10 259 3.9
2014-Nov-28 08:55 259 4.4
2014-Nov-28 08:40 259 3.9
2014-Nov-28 08:25 259 4.4
2014-Nov-28 08:10 259 4.4
2014-Nov-28 07:55 259 3.9
2014-Nov-28 07:40 259 4.4
2014-Nov-28 07:25 259 4.4
2014-Nov-28 07:10 259 4.4
2014-Nov-28 06:55 259 4.4
2014-Nov-28 05:40 259 4.4
2014-Nov-28 05:25 259 4.4
2014-Nov-28 05:10 259 0 4.4
2014-Nov-28 04:55 303 0 4.4
2014-Nov-28 04:40 311 4.4
2014-Nov-28 04:25 311 4.4
2014-Nov-28 04:10 311 4.4
2014-Nov-28 03:55 311 4.4
2014-Nov-28 03:40 311 4.4
2014-Nov-28 03:25 311 4.4
2014-Nov-28 03:10 311 5.0
2014-Nov-28 02:55 311 5.0
2014-Nov-28 02:40 311 5.0
2014-Nov-28 02:25 311 5.0
2014-Nov-28 01:55 311 5.0
2014-Nov-28 01:40 311 5.0
2014-Nov-28 01:25 311 5.0
2014-Nov-28 01:10 311 4.4
2014-Nov-28 00:55 312 4.4
2014-Nov-28 00:40 313 1 4.4
2014-Nov-28 00:25 294 5 4.4
2014-Nov-28 00:09 275 3 5.0
2014-Nov-27 23:54 251 3 5.6
2014-Nov-27 23:39 225 5 5.6
2014-Nov-27 23:24 240 4 5.6
2014-Nov-27 23:09 245 6 5.6
2014-Nov-27 22:54 236 5 5.6
2014-Nov-27 22:39 234 2 5.6
2014-Nov-27 22:24 233 2 5.6
2014-Nov-27 22:09 253 5.6
2014-Nov-27 21:54 253 5 5.6
2014-Nov-27 21:39 246 5.6
2014-Nov-27 21:24 244 5.6
2014-Nov-27 21:09 244 5.6
2014-Nov-27 20:54 236 0 5.6
2014-Nov-27 20:39 234 4 5.6
2014-Nov-27 20:24 240 6 5.6
2014-Nov-27 20:09 221 6 5.6
2014-Nov-27 19:54 234 0 5.6
2014-Nov-27 19:39 227 4 5.6
2014-Nov-27 19:24 250 0 5.6
2014-Nov-27 19:09 272 7 5.6
2014-Nov-27 18:54 248 7 5.6
2014-Nov-27 18:39 238 6 5.6
2014-Nov-27 18:24 215 8 5.6
2014-Nov-27 18:09 220 10 6.1
2014-Nov-27 17:54 236 9 6.1
2014-Nov-27 17:39 229 11 6.1
2014-Nov-27 17:24 232 9 6.1
2014-Nov-27 17:09 236 10 6.1
2014-Nov-27 16:54 237 9 5.6
2014-Nov-27 16:39 257 9 5.6
2014-Nov-27 16:24 232 12 5.6
2014-Nov-27 16:09 276 13 5.6
2014-Nov-27 15:54 261 13 5.6
2014-Nov-27 15:39 253 11 5.6
2014-Nov-27 15:24 255 13 6.1
2014-Nov-27 15:09 272 10 6.1
2014-Nov-27 14:54 260 12 6.1
2014-Nov-27 14:39 279 11 6.1
2014-Nov-27 14:24 271 12 6.1
2014-Nov-27 14:09 260 11 6.1
2014-Nov-27 13:54 266 11 6.1
2014-Nov-27 13:39 259 10 6.1
2014-Nov-27 13:24 267 10 5.6
2014-Nov-27 13:09 263 11 5.6
2014-Nov-27 12:54 198 11 6.1
2014-Nov-27 12:39 282 11 6.1
2014-Nov-27 12:24 261 10 6.7
2014-Nov-27 12:09 289 10 6.7
2014-Nov-27 11:54 256 11 6.7
2014-Nov-27 11:39 267 10 7.2
2014-Nov-27 11:24 263 9 7.2
2014-Nov-27 11:09 240 7 7.2
2014-Nov-27 10:54 264 9 7.2
2014-Nov-27 10:39 270 6 7.2
2014-Nov-27 10:24 267 6 7.2
2014-Nov-27 10:09 233 0 6.7
2014-Nov-27 09:54 213 1 6.7
2014-Nov-27 09:39 259 6.1
2014-Nov-27 09:24 259 5.6
2014-Nov-27 09:09 259 5.0
2014-Nov-27 08:54 259 5.6
2014-Nov-27 08:39 259 5.6
2014-Nov-27 08:23 259 5.6
2014-Nov-27 08:08 259 5.0
2014-Nov-27 07:53 251 5.6
2014-Nov-27 07:38 251 5.0
2014-Nov-27 07:23 251 5.0
2014-Nov-27 07:08 251 5.6
2014-Nov-27 06:53 251 5.0
2014-Nov-27 06:38 251 5.0
2014-Nov-27 06:23 251 5.0
2014-Nov-27 06:08 251 4.4
2014-Nov-27 05:53 251 5.0
2014-Nov-27 05:38 251 5.0
2014-Nov-27 05:23 251 5.6
2014-Nov-27 05:08 251 5.0
2014-Nov-27 04:53 251 3.9
2014-Nov-27 04:38 251 3.3
2014-Nov-27 04:23 251 3.9
2014-Nov-27 03:53 251 3.3
2014-Nov-27 03:38 251 3.3
2014-Nov-27 03:23 251 3.3
2014-Nov-27 03:08 251 3.9
2014-Nov-27 02:53 251 3.9
2014-Nov-27 02:38 251 3.9
2014-Nov-27 02:23 251 3.9
2014-Nov-27 02:08 251 4.4
2014-Nov-27 01:53 251 4.4
2014-Nov-27 01:38 256 4.4
2014-Nov-27 01:23 256 4.4
2014-Nov-27 01:08 256 3.9
2014-Nov-27 00:53 256 5.0
2014-Nov-27 00:38 256 5.6
2014-Nov-27 00:23 256 5.6
2014-Nov-27 00:08 256 5.6
2014-Nov-26 23:53 248 6.1
2014-Nov-26 23:38 248 6.1
2014-Nov-26 23:23 247 5.6
2014-Nov-26 23:08 247 6.1
2014-Nov-26 22:53 243 6.1
2014-Nov-26 22:38 234 3 6.7
2014-Nov-26 22:23 227 2 6.7
2014-Nov-26 22:08 226 6 6.7
2014-Nov-26 21:53 211 7 6.7
2014-Nov-26 21:38 214 7 6.7
2014-Nov-26 21:23 218 4 6.7
2014-Nov-26 21:08 259 7 6.7
2014-Nov-26 20:53 245 6 6.7
2014-Nov-26 20:38 241 7 6.7
2014-Nov-26 20:23 259 9 6.7
2014-Nov-26 20:08 233 4 6.7
2014-Nov-26 19:53 240 6 6.7
2014-Nov-26 19:38 234 6 6.7
2014-Nov-26 19:23 240 5 6.7
2014-Nov-26 19:08 218 5 6.1
2014-Nov-26 18:53 244 6 6.7
2014-Nov-26 18:38 262 6 6.7
2014-Nov-26 18:23 211 6 6.1
2014-Nov-26 18:08 213 6 6.7
2014-Nov-26 17:53 216 6 6.7
2014-Nov-26 17:38 211 6 7.2
2014-Nov-26 17:23 243 6 7.2
2014-Nov-26 17:08 253 6 7.2
2014-Nov-26 16:53 259 6 7.2
2014-Nov-26 16:38 259 5 7.2
2014-Nov-26 16:23 254 5 7.2
2014-Nov-26 16:08 241 1 7.2
2014-Nov-26 15:53 251 0 7.2
2014-Nov-26 15:38 251 7.2
2014-Nov-26 15:23 251 3 7.2
2014-Nov-26 15:08 237 3 7.2
2014-Nov-26 14:53 218 7.2
2014-Nov-26 14:37 219 6.7
2014-Nov-26 14:22 219 3 6.7
2014-Nov-26 14:07 199 6.7
2014-Nov-26 13:52 199 5 6.7
2014-Nov-26 13:37 167 10 6.7
2014-Nov-26 13:22 232 2 7.2
2014-Nov-26 13:07 240 5 7.2
2014-Nov-26 12:52 234 3 7.2
2014-Nov-26 12:37 267 7.2
2014-Nov-26 12:22 270 7.2
2014-Nov-26 12:07 270 4 6.7
2014-Nov-26 11:52 271 0 6.7
2014-Nov-26 11:37 272 3 6.7
2014-Nov-26 11:22 277 2 6.7
2014-Nov-26 11:07 273 8 6.7